| time (UTC) | temp F | wind direction | speed MPH | gust MPH | rain 1hr in | rain 24hr in | rain mn in | humidity % | barometer mb |
| 20260507105503 | 39 | 293 | 0.0 | 3.0 | 0.00 | 0.32 | 0.00 | 95 | 1012.8 |
| 20260507105004 | 39 | 298 | 0.0 | 3.0 | 0.00 | 0.32 | 0.00 | 95 | 1013.0 |
| 20260507104524 | 39 | 192 | 0.0 | 3.0 | 0.00 | 0.32 | 0.00 | 95 | 1012.7 |
| 20260507104024 | 39 | 193 | 0.0 | 3.0 | 0.00 | 0.32 | 0.00 | 95 | 1012.7 |
| 20260507103503 | 39 | 207 | 0.0 | 1.0 | 0.00 | 0.32 | 0.00 | 94 | 1012.8 |
| 20260507103004 | 39 | 0 | 0.0 | 0.0 | 0.00 | 0.32 | 0.00 | 94 | 1012.6 |
| 20260507102503 | 39 | 0 | 0.0 | 0.0 | 0.00 | 0.32 | 0.00 | 94 | 1012.5 |
| 20260507102003 | 39 | 0 | 0.0 | 0.0 | 0.00 | 0.32 | 0.00 | 94 | 1012.5 |
| 20260507101524 | 39 | 211 | 0.0 | 1.0 | 0.00 | 0.32 | 0.00 | 94 | 1012.4 |
| 20260507101004 | 40 | 224 | 0.0 | 1.0 | 0.00 | 0.32 | 0.00 | 94 | 1012.5 |
| 20260507100503 | 40 | 253 | 0.0 | 1.0 | 0.00 | 0.32 | 0.00 | 94 | 1012.4 |
| 20260507100004 | 40 | 247 | 0.0 | 4.0 | 0.00 | 0.32 | 0.00 | 94 | 1012.4 |
| 20260507095524 | 40 | 192 | 0.0 | 4.0 | 0.00 | 0.32 | 0.00 | 94 | 1012.3 |
| 20260507095003 | 40 | 162 | 0.0 | 3.0 | 0.00 | 0.32 | 0.00 | 94 | 1012.3 |
| 20260507094503 | 40 | 229 | 1.0 | 6.0 | 0.00 | 0.32 | 0.00 | 94 | 1012.3 |
| 20260507094024 | 40 | 296 | 1.0 | 10.0 | 0.00 | 0.32 | 0.00 | 94 | 1012.2 |
| 20260507093503 | 41 | 306 | 1.0 | 10.0 | 0.00 | 0.32 | 0.00 | 94 | 1012.3 |
| 20260507093003 | 41 | 209 | 1.0 | 9.0 | 0.00 | 0.32 | 0.00 | 95 | 1012.3 |
| 20260507092503 | 41 | 216 | 0.0 | 4.0 | 0.00 | 0.32 | 0.00 | 95 | 1012.3 |
| 20260507092003 | 41 | 255 | 0.0 | 4.0 | 0.00 | 0.32 | 0.00 | 95 | 1012.2 |
| 20260507091504 | 42 | 281 | 0.0 | 4.0 | 0.00 | 0.32 | 0.00 | 95 | 1012.1 |
| 20260507091003 | 42 | 277 | 0.0 | 4.0 | 0.00 | 0.32 | 0.00 | 95 | 1012.1 |
| 20260507090503 | 42 | 39 | 0.0 | 1.0 | 0.00 | 0.32 | 0.00 | 95 | 1012.3 |
| 20260507090004 | 42 | 87 | 0.0 | 1.0 | 0.00 | 0.32 | 0.00 | 95 | 1012.1 |
| 20260507085503 | 42 | 119 | 0.0 | 3.0 | 0.00 | 0.32 | 0.00 | 95 | 1012.2 |
| 20260507085003 | 42 | 189 | 0.0 | 6.0 | 0.00 | 0.32 | 0.00 | 94 | 1012.0 |
| 20260507084503 | 43 | 231 | 1.0 | 6.0 | 0.00 | 0.32 | 0.00 | 94 | 1011.9 |
| 20260507084003 | 43 | 269 | 1.0 | 9.0 | 0.00 | 0.32 | 0.00 | 94 | 1011.9 |
| 20260507083503 | 43 | 282 | 1.0 | 12.0 | 0.00 | 0.32 | 0.00 | 94 | 1011.8 |
| 20260507083024 | 43 | 243 | 1.0 | 12.0 | 0.00 | 0.32 | 0.00 | 94 | 1011.9 |
| 20260507082503 | 43 | 235 | 3.0 | 10.0 | 0.00 | 0.32 | 0.00 | 95 | 1012.0 |
| 20260507082003 | 44 | 222 | 3.0 | 10.0 | 0.00 | 0.32 | 0.00 | 96 | 1012.1 |
| 20260507081503 | 44 | 189 | 1.0 | 6.0 | 0.00 | 0.32 | 0.00 | 97 | 1012.1 |
| 20260507081024 | 44 | 215 | 1.0 | 6.0 | 0.00 | 0.32 | 0.00 | 97 | 1012.3 |
| 20260507080503 | 44 | 284 | 1.0 | 9.0 | 0.00 | 0.32 | 0.00 | 97 | 1012.2 |
| 20260507080003 | 44 | 301 | 0.0 | 9.0 | 0.00 | 0.32 | 0.00 | 97 | 1012.1 |
| 20260507075524 | 44 | 300 | 0.0 | 3.0 | 0.00 | 0.32 | 0.00 | 97 | 1012.1 |
| 20260507075003 | 44 | 314 | 0.0 | 4.0 | 0.00 | 0.32 | 0.00 | 97 | 1012.1 |
| 20260507074503 | 44 | 297 | 0.0 | 6.0 | 0.00 | 0.32 | 0.00 | 97 | 1012.2 |
| 20260507074003 | 44 | 281 | 1.0 | 6.0 | 0.00 | 0.32 | 0.00 | 97 | 1012.1 |
| 20260507073503 | 44 | 286 | 1.0 | 6.0 | 0.00 | 0.32 | 0.00 | 97 | 1012.3 |
| 20260507073024 | 44 | 277 | 1.0 | 4.0 | 0.00 | 0.32 | 0.00 | 97 | 1012.2 |
| 20260507072524 | 44 | 278 | 1.0 | 4.0 | 0.00 | 0.32 | 0.00 | 97 | 1012.2 |
| 20260507072003 | 44 | 296 | 1.0 | 9.0 | 0.00 | 0.32 | 0.00 | 97 | 1012.4 |
| 20260507071524 | 44 | 295 | 1.0 | 9.0 | 0.00 | 0.32 | 0.00 | 97 | 1012.3 |
| 20260507071024 | 44 | 293 | 1.0 | 4.0 | 0.00 | 0.32 | 0.00 | 97 | 1012.4 |
| 20260507070503 | 44 | 304 | 1.0 | 4.0 | 0.00 | 0.32 | 0.00 | 97 | 1012.3 |
| 20260507070008 | 45 | 304 | 1.0 | 4.0 | 0.00 | 0.32 | 0.00 | 98 | 1012.3 |
| 20260507065503 | 45 | 314 | 1.0 | 4.0 | 0.00 | 0.32 | 0.00 | 98 | 1012.5 |
| 20260507065003 | 45 | 308 | 1.0 | 6.0 | 0.00 | 0.32 | 0.00 | 98 | 1012.4 |
| 20260507064503 | 45 | 299 | 1.0 | 6.0 | 0.00 | 0.32 | 0.00 | 98 | 1012.3 |
| 20260507064024 | 44 | 0 | 0.0 | 0.0 | 0.00 | 0.32 | 0.00 | 98 | 1012.3 |
| 20260507063503 | 44 | 0 | 0.0 | 0.0 | 0.00 | 0.32 | 0.00 | 98 | 1012.2 |
| 20260507063003 | 44 | 0 | 0.0 | 0.0 | 0.00 | 0.32 | 0.00 | 98 | 1012.2 |
| 20260507062503 | 44 | 0 | 0.0 | 0.0 | 0.00 | 0.32 | 0.00 | 98 | 1012.1 |
| 20260507062003 | 44 | 0 | 0.0 | 0.0 | 0.00 | 0.32 | 0.00 | 98 | 1012.2 |
| 20260507061503 | 44 | 167 | 0.0 | 1.0 | 0.00 | 0.32 | 0.00 | 98 | 1012.0 |
| 20260507061003 | 44 | 163 | 0.0 | 6.0 | 0.00 | 0.32 | 0.00 | 98 | 1012.1 |
| 20260507060503 | 44 | 161 | 0.0 | 6.0 | 0.00 | 0.32 | 0.00 | 97 | 1011.9 |
| 20260507060003 | 44 | 50 | 0.0 | 1.0 | 0.00 | 0.32 | 0.00 | 98 | 1012.0 |
| 20260507055503 | 44 | 50 | 0.0 | 1.0 | 0.00 | 0.32 | 0.00 | 98 | 1011.8 |
| 20260507055003 | 44 | 50 | 0.0 | 1.0 | 0.00 | 0.32 | 0.00 | 98 | 1011.6 |
| 20260507054503 | 44 | 50 | 0.0 | 1.0 | 0.00 | 0.32 | 0.00 | 98 | 1011.6 |
| 20260507054024 | 44 | 50 | 0.0 | 1.0 | 0.00 | 0.32 | 0.00 | 97 | 1011.5 |
| 20260507053503 | 44 | 0 | 0.0 | 0.0 | 0.00 | 0.32 | 0.00 | 98 | 1011.5 |
| 20260507053004 | 44 | 0 | 0.0 | 0.0 | 0.00 | 0.32 | 0.00 | 98 | 1011.7 |
| 20260507052505 | 44 | 0 | 0.0 | 0.0 | 0.00 | 0.32 | 0.00 | 98 | 1011.6 |
| 20260507052005 | 44 | 0 | 0.0 | 0.0 | 0.00 | 0.32 | 0.00 | 98 | 1011.5 |
| 20260507051505 | 45 | 0 | 0.0 | 0.0 | 0.00 | 0.32 | 0.00 | 98 | 1011.5 |
| 20260507051005 | 44 | 0 | 0.0 | 0.0 | 0.00 | 0.32 | 0.00 | 97 | 1011.5 |
| 20260507050505 | 44 | 0 | 0.0 | 0.0 | 0.00 | 0.32 | 0.00 | 97 | 1011.6 |
| 20260507050006 | 44 | 50 | 0.0 | 1.0 | 0.00 | 0.32 | 0.00 | 97 | 1011.6 |
| 20260507045505 | 44 | 50 | 0.0 | 1.0 | 0.00 | 0.32 | 0.00 | 97 | 1011.6 |
| 20260507045005 | 44 | 50 | 0.0 | 1.0 | 0.00 | 0.32 | 0.00 | 97 | 1011.8 |
| 20260507044505 | 44 | 50 | 0.0 | 1.0 | 0.00 | 0.32 | 0.00 | 97 | 1011.6 |
| 20260507044005 | 44 | 50 | 0.0 | 1.0 | 0.00 | 0.32 | 0.00 | 97 | 1011.7 |
| 20260507043505 | 44 | 50 | 0.0 | 1.0 | 0.00 | 0.32 | 0.00 | 97 | 1011.8 |
| 20260507043005 | 44 | 50 | 0.0 | 1.0 | 0.00 | 0.32 | 0.00 | 97 | 1011.9 |
| 20260507042505 | 44 | 50 | 0.0 | 3.0 | 0.00 | 0.32 | 0.00 | 97 | 1011.9 |
| 20260507042005 | 44 | 50 | 0.0 | 3.0 | 0.00 | 0.32 | 0.00 | 97 | 1011.9 |
| 20260507041505 | 44 | 50 | 0.0 | 3.0 | 0.00 | 0.32 | 0.00 | 97 | 1012.0 |
| 20260507041005 | 44 | 50 | 0.0 | 1.0 | 0.00 | 0.32 | 0.00 | 97 | 1012.2 |
| 20260507040526 | 44 | 50 | 0.0 | 1.0 | 0.00 | 0.32 | 0.00 | 97 | 1012.0 |
| 20260507040005 | 44 | 50 | 0.0 | 1.0 | 0.00 | 0.32 | 0.00 | 97 | 1012.0 |
| 20260507035505 | 44 | 50 | 0.0 | 1.0 | 0.00 | 0.32 | 0.32 | 97 | 1012.0 |
| 20260507035005 | 44 | 50 | 0.0 | 1.0 | 0.00 | 0.32 | 0.32 | 96 | 1011.9 |
| 20260507034526 | 45 | 0 | 0.0 | 0.0 | 0.00 | 0.32 | 0.32 | 96 | 1011.9 |
| 20260507034005 | 45 | 0 | 0.0 | 0.0 | 0.00 | 0.32 | 0.32 | 96 | 1011.9 |
| 20260507033526 | 45 | 0 | 0.0 | 0.0 | 0.00 | 0.32 | 0.32 | 96 | 1012.0 |
| 20260507033005 | 45 | 50 | 0.0 | 1.0 | 0.00 | 0.32 | 0.32 | 96 | 1011.7 |
| 20260507032505 | 45 | 50 | 0.0 | 1.0 | 0.00 | 0.32 | 0.32 | 96 | 1011.6 |
| 20260507032005 | 46 | 35 | 0.0 | 1.0 | 0.00 | 0.32 | 0.32 | 96 | 1011.3 |
| 20260507031505 | 46 | 35 | 0.0 | 1.0 | 0.00 | 0.32 | 0.32 | 96 | 1011.2 |
| 20260507031026 | 46 | 44 | 0.0 | 1.0 | 0.00 | 0.32 | 0.32 | 96 | 1011.4 |
| 20260507030506 | 46 | 51 | 0.0 | 1.0 | 0.00 | 0.32 | 0.32 | 97 | 1011.9 |
| 20260507030005 | 46 | 102 | 0.0 | 1.0 | 0.00 | 0.32 | 0.32 | 96 | 1011.8 |
| 20260507025505 | 46 | 87 | 0.0 | 1.0 | 0.00 | 0.32 | 0.32 | 97 | 1011.8 |
| 20260507025005 | 46 | 87 | 0.0 | 1.0 | 0.00 | 0.32 | 0.32 | 97 | 1011.9 |
| 20260507024505 | 46 | 0 | 0.0 | 0.0 | 0.00 | 0.32 | 0.32 | 97 | 1012.0 |
| 20260507024005 | 46 | 0 | 0.0 | 0.0 | 0.00 | 0.32 | 0.32 | 96 | 1011.9 |
| 20260507023526 | 46 | 86 | 0.0 | 1.0 | 0.00 | 0.32 | 0.32 | 96 | 1012.0 |
| 20260507023026 | 46 | 86 | 0.0 | 1.0 | 0.00 | 0.32 | 0.32 | 97 | 1011.9 |
| 20260507022505 | 46 | 105 | 0.0 | 1.0 | 0.00 | 0.32 | 0.32 | 97 | 1012.0 |
| 20260507022004 | 46 | 107 | 0.0 | 1.0 | 0.00 | 0.32 | 0.32 | 97 | 1012.1 |
| 20260507021504 | 46 | 123 | 0.0 | 3.0 | 0.00 | 0.32 | 0.32 | 96 | 1012.4 |
| 20260507021026 | 46 | 123 | 0.0 | 3.0 | 0.00 | 0.32 | 0.32 | 96 | 1012.1 |
| 20260507020525 | 46 | 0 | 0.0 | 0.0 | 0.00 | 0.32 | 0.32 | 96 | 1012.3 |
| 20260507020026 | 46 | 0 | 0.0 | 0.0 | 0.00 | 0.32 | 0.32 | 96 | 1012.3 |
| 20260507015506 | 46 | 127 | 0.0 | 1.0 | 0.00 | 0.32 | 0.32 | 96 | 1012.3 |
| 20260507015004 | 46 | 127 | 0.0 | 1.0 | 0.00 | 0.32 | 0.32 | 96 | 1012.4 |
| 20260507014504 | 46 | 0 | 0.0 | 0.0 | 0.00 | 0.32 | 0.32 | 96 | 1012.5 |
| 20260507014005 | 46 | 151 | 0.0 | 3.0 | 0.00 | 0.32 | 0.32 | 96 | 1012.5 |
| 20260507013505 | 46 | 162 | 0.0 | 3.0 | 0.00 | 0.32 | 0.32 | 96 | 1012.6 |
| 20260507013005 | 46 | 211 | 0.0 | 1.0 | 0.00 | 0.32 | 0.32 | 96 | 1012.5 |
| 20260507012504 | 46 | 214 | 0.0 | 1.0 | 0.00 | 0.32 | 0.32 | 96 | 1012.3 |
| 20260507012005 | 46 | 244 | 0.0 | 1.0 | 0.00 | 0.32 | 0.32 | 96 | 1012.2 |
| 20260507011005 | 46 | 180 | 0.0 | 1.0 | 0.00 | 0.32 | 0.32 | 96 | 1012.2 |
| 20260507010504 | 46 | 349 | 1.0 | 6.0 | 0.00 | 0.32 | 0.32 | 96 | 1012.3 |
| 20260507010005 | 47 | 310 | 1.0 | 6.0 | 0.00 | 0.32 | 0.32 | 96 | 1012.3 |
| 20260507005504 | 47 | 227 | 1.0 | 9.0 | 0.00 | 0.32 | 0.32 | 96 | 1012.2 |
| 20260507005026 | 47 | 211 | 1.0 | 9.0 | 0.00 | 0.32 | 0.32 | 96 | 1012.1 |
| 20260507004504 | 47 | 308 | 1.0 | 6.0 | 0.00 | 0.32 | 0.32 | 96 | 1012.0 |
| 20260507004026 | 47 | 285 | 1.0 | 6.0 | 0.00 | 0.32 | 0.32 | 96 | 1011.9 |
| 20260507003504 | 47 | 215 | 0.0 | 4.0 | 0.00 | 0.32 | 0.32 | 96 | 1011.8 |
| 20260507003005 | 47 | 279 | 0.0 | 3.0 | 0.00 | 0.32 | 0.32 | 96 | 1011.7 |
| 20260507002505 | 47 | 302 | 0.0 | 7.0 | 0.00 | 0.32 | 0.32 | 96 | 1011.5 |
| 20260507002026 | 47 | 3 | 0.0 | 7.0 | 0.00 | 0.32 | 0.32 | 96 | 1011.4 |
| 20260507001504 | 47 | 78 | 1.0 | 4.0 | 0.00 | 0.32 | 0.32 | 96 | 1011.2 |
| 20260507001004 | 48 | 73 | 0.0 | 4.0 | 0.00 | 0.32 | 0.32 | 96 | 1011.4 |
| 20260507000505 | 48 | 218 | 0.0 | 1.0 | 0.01 | 0.32 | 0.32 | 97 | 1011.4 |
| 20260507000005 | 48 | 170 | 0.0 | 3.0 | 0.01 | 0.32 | 0.32 | 96 | 1011.4 |
| 20260506235505 | 48 | 202 | 0.0 | 3.0 | 0.01 | 0.32 | 0.32 | 96 | 1011.3 |
| 20260506235004 | 48 | 271 | 0.0 | 3.0 | 0.01 | 0.32 | 0.32 | 97 | 1011.3 |
| 20260506234504 | 48 | 233 | 0.0 | 4.0 | 0.01 | 0.32 | 0.32 | 97 | 1011.2 |
| 20260506234005 | 48 | 249 | 1.0 | 6.0 | 0.01 | 0.32 | 0.32 | 97 | 1011.1 |
| 20260506233504 | 48 | 339 | 1.0 | 6.0 | 0.01 | 0.32 | 0.32 | 97 | 1011.1 |
| 20260506233005 | 48 | 31 | 1.0 | 6.0 | 0.01 | 0.32 | 0.32 | 96 | 1011.1 |
| 20260506232525 | 48 | 135 | 1.0 | 4.0 | 0.01 | 0.32 | 0.32 | 96 | 1011.1 |
| 20260506232004 | 48 | 109 | 1.0 | 6.0 | 0.01 | 0.32 | 0.32 | 96 | 1011.2 |
| 20260506231505 | 48 | 266 | 1.0 | 10.0 | 0.01 | 0.32 | 0.32 | 96 | 1011.2 |
| 20260506231025 | 48 | 251 | 1.0 | 10.0 | 0.01 | 0.32 | 0.32 | 96 | 1011.0 |
| 20260506230504 | 48 | 33 | 0.0 | 4.0 | 0.00 | 0.31 | 0.31 | 96 | 1011.1 |
| 20260506230005 | 48 | 279 | 1.0 | 6.0 | 0.00 | 0.31 | 0.31 | 96 | 1010.8 |
| 20260506225504 | 48 | 286 | 1.0 | 7.0 | 0.00 | 0.31 | 0.31 | 96 | 1010.8 |
| 20260506225004 | 48 | 288 | 1.0 | 9.0 | 0.00 | 0.31 | 0.31 | 96 | 1010.6 |
| 20260506224504 | 48 | 284 | 1.0 | 9.0 | 0.00 | 0.31 | 0.31 | 96 | 1010.7 |
| 20260506224004 | 48 | 77 | 1.0 | 9.0 | 0.00 | 0.31 | 0.31 | 96 | 1010.4 |
| 20260506223504 | 48 | 313 | 1.0 | 9.0 | 0.00 | 0.31 | 0.31 | 96 | 1010.4 |
| 20260506223004 | 48 | 298 | 1.0 | 9.0 | 0.00 | 0.31 | 0.31 | 96 | 1010.5 |
| 20260506222505 | 48 | 51 | 1.0 | 3.0 | 0.00 | 0.31 | 0.31 | 96 | 1010.3 |
| 20260506222004 | 48 | 46 | 3.0 | 13.0 | 0.00 | 0.31 | 0.31 | 96 | 1010.2 |
| 20260506221505 | 49 | 29 | 3.0 | 13.0 | 0.00 | 0.31 | 0.31 | 95 | 1009.9 |
| 20260506221025 | 49 | 310 | 3.0 | 12.0 | 0.00 | 0.31 | 0.31 | 96 | 1010.0 |
| 20260506220504 | 49 | 246 | 3.0 | 12.0 | 0.00 | 0.31 | 0.31 | 96 | 1009.8 |
| 20260506220025 | 49 | 193 | 3.0 | 12.0 | 0.00 | 0.31 | 0.31 | 96 | 1009.5 |
| 20260506215504 | 50 | 173 | 3.0 | 10.0 | 0.00 | 0.31 | 0.31 | 96 | 1009.4 |
| 20260506215006 | 50 | 183 | 3.0 | 10.0 | 0.01 | 0.31 | 0.31 | 96 | 1009.3 |
| 20260506214504 | 50 | 184 | 3.0 | 7.0 | 0.01 | 0.31 | 0.31 | 96 | 1009.4 |
| 20260506214025 | 50 | 187 | 3.0 | 9.0 | 0.01 | 0.31 | 0.31 | 96 | 1009.2 |
| 20260506213505 | 50 | 210 | 3.0 | 13.0 | 0.02 | 0.31 | 0.31 | 96 | 1008.9 |
| 20260506213004 | 50 | 227 | 3.0 | 13.0 | 0.02 | 0.31 | 0.31 | 96 | 1008.7 |
| 20260506212525 | 50 | 208 | 3.0 | 12.0 | 0.03 | 0.31 | 0.31 | 96 | 1008.6 |
| 20260506212004 | 51 | 243 | 3.0 | 12.0 | 0.03 | 0.31 | 0.31 | 96 | 1008.4 |
| 20260506211504 | 51 | 235 | 3.0 | 12.0 | 0.03 | 0.31 | 0.31 | 96 | 1008.4 |
| 20260506211026 | 51 | 264 | 3.0 | 13.0 | 0.04 | 0.31 | 0.31 | 96 | 1008.4 |
| 20260506210504 | 52 | 295 | 3.0 | 13.0 | 0.06 | 0.31 | 0.31 | 96 | 1008.3 |
| 20260506210005 | 52 | 263 | 3.0 | 19.0 | 0.06 | 0.31 | 0.31 | 96 | 1008.1 |
| 20260506205504 | 52 | 254 | 4.0 | 19.0 | 0.06 | 0.31 | 0.31 | 96 | 1008.1 |
| 20260506205004 | 52 | 258 | 4.0 | 10.0 | 0.05 | 0.30 | 0.30 | 96 | 1007.8 |
| 20260506204504 | 52 | 283 | 4.0 | 10.0 | 0.05 | 0.30 | 0.30 | 95 | 1007.7 |
| 20260506204004 | 53 | 293 | 4.0 | 13.0 | 0.05 | 0.30 | 0.30 | 95 | 1007.6 |
| 20260506203504 | 54 | 275 | 4.0 | 13.0 | 0.04 | 0.29 | 0.29 | 94 | 1007.5 |
| 20260506203004 | 54 | 270 | 3.0 | 12.0 | 0.04 | 0.29 | 0.29 | 94 | 1007.5 |
| 20260506202505 | 56 | 268 | 3.0 | 12.0 | 0.03 | 0.28 | 0.28 | 95 | 1007.5 |
| 20260506202004 | 56 | 269 | 3.0 | 12.0 | 0.03 | 0.28 | 0.28 | 95 | 1007.4 |
| 20260506201525 | 57 | 254 | 3.0 | 14.0 | 0.03 | 0.28 | 0.28 | 95 | 1007.3 |
| 20260506201025 | 58 | 225 | 3.0 | 14.0 | 0.02 | 0.27 | 0.27 | 95 | 1007.4 |
| 20260506200504 | 59 | 201 | 1.0 | 9.0 | 0.00 | 0.25 | 0.25 | 98 | 1007.1 |
| 20260506200005 | 59 | 193 | 1.0 | 6.0 | 0.00 | 0.25 | 0.25 | 98 | 1007.0 |
| 20260506195504 | 59 | 189 | 1.0 | 6.0 | 0.00 | 0.25 | 0.25 | 98 | 1007.0 |
| 20260506195004 | 59 | 194 | 1.0 | 4.0 | 0.00 | 0.25 | 0.25 | 98 | 1007.1 |
| 20260506194504 | 59 | 210 | 1.0 | 6.0 | 0.00 | 0.25 | 0.25 | 98 | 1007.2 |
| 20260506194004 | 59 | 211 | 1.0 | 6.0 | 0.00 | 0.25 | 0.25 | 98 | 1007.1 |
| 20260506193504 | 59 | 211 | 1.0 | 4.0 | 0.00 | 0.25 | 0.25 | 98 | 1007.2 |
| 20260506193004 | 59 | 211 | 1.0 | 4.0 | 0.00 | 0.25 | 0.25 | 98 | 1007.3 |
| 20260506192504 | 59 | 216 | 1.0 | 4.0 | 0.00 | 0.25 | 0.25 | 98 | 1007.3 |
| 20260506192004 | 59 | 215 | 1.0 | 4.0 | 0.00 | 0.25 | 0.25 | 98 | 1007.3 |
| 20260506191504 | 59 | 215 | 1.0 | 4.0 | 0.00 | 0.25 | 0.25 | 98 | 1007.4 |
| 20260506191004 | 59 | 213 | 1.0 | 6.0 | 0.00 | 0.25 | 0.25 | 98 | 1007.4 |
| 20260506190504 | 59 | 209 | 3.0 | 6.0 | 0.00 | 0.25 | 0.25 | 98 | 1007.1 |
| 20260506190025 | 59 | 202 | 3.0 | 6.0 | 0.00 | 0.25 | 0.25 | 98 | 1007.2 |
| 20260506185504 | 59 | 199 | 1.0 | 6.0 | 0.00 | 0.25 | 0.25 | 98 | 1007.3 |
| 20260506185004 | 59 | 200 | 1.0 | 6.0 | 0.00 | 0.25 | 0.25 | 98 | 1007.4 |
| 20260506184525 | 59 | 191 | 1.0 | 4.0 | 0.00 | 0.25 | 0.25 | 98 | 1007.4 |
| 20260506184005 | 59 | 183 | 1.0 | 4.0 | 0.00 | 0.25 | 0.25 | 98 | 1007.4 |
| 20260506183504 | 59 | 192 | 1.0 | 4.0 | 0.00 | 0.25 | 0.25 | 98 | 1007.4 |
| 20260506183005 | 59 | 211 | 1.0 | 4.0 | 0.00 | 0.25 | 0.25 | 98 | 1007.5 |
| 20260506182504 | 59 | 210 | 1.0 | 4.0 | 0.00 | 0.25 | 0.25 | 98 | 1007.6 |
| 20260506182004 | 59 | 209 | 1.0 | 4.0 | 0.00 | 0.25 | 0.25 | 98 | 1007.5 |
| 20260506181504 | 59 | 218 | 1.0 | 4.0 | 0.00 | 0.25 | 0.25 | 98 | 1007.6 |
| 20260506181025 | 59 | 218 | 1.0 | 4.0 | 0.01 | 0.25 | 0.25 | 98 | 1007.6 |
| 20260506180504 | 59 | 198 | 1.0 | 7.0 | 0.01 | 0.25 | 0.25 | 98 | 1007.6 |
| 20260506180005 | 59 | 196 | 1.0 | 7.0 | 0.01 | 0.25 | 0.25 | 98 | 1007.5 |
| 20260506175504 | 59 | 186 | 3.0 | 9.0 | 0.02 | 0.25 | 0.25 | 98 | 1007.6 |
| 20260506175004 | 59 | 179 | 3.0 | 9.0 | 0.02 | 0.25 | 0.25 | 98 | 1007.6 |
| 20260506174504 | 59 | 181 | 3.0 | 7.0 | 0.02 | 0.25 | 0.25 | 98 | 1007.5 |
| 20260506174004 | 59 | 178 | 3.0 | 7.0 | 0.02 | 0.25 | 0.25 | 97 | 1007.5 |
| 20260506173504 | 59 | 174 | 4.0 | 10.0 | 0.03 | 0.25 | 0.25 | 98 | 1007.5 |
| 20260506173004 | 59 | 179 | 4.0 | 10.0 | 0.03 | 0.25 | 0.25 | 98 | 1007.4 |
| 20260506172504 | 59 | 178 | 4.0 | 10.0 | 0.03 | 0.25 | 0.25 | 98 | 1007.4 |
| 20260506172004 | 59 | 170 | 4.0 | 10.0 | 0.03 | 0.25 | 0.25 | 98 | 1007.4 |
| 20260506171504 | 59 | 169 | 4.0 | 10.0 | 0.03 | 0.25 | 0.25 | 98 | 1007.4 |
| 20260506171004 | 59 | 173 | 3.0 | 9.0 | 0.02 | 0.24 | 0.24 | 98 | 1007.6 |
| 20260506170504 | 59 | 194 | 3.0 | 6.0 | 0.02 | 0.24 | 0.24 | 98 | 1007.7 |
| 20260506170004 | 58 | 207 | 1.0 | 6.0 | 0.03 | 0.24 | 0.24 | 98 | 1007.7 |
| 20260506165504 | 58 | 208 | 1.0 | 4.0 | 0.02 | 0.23 | 0.23 | 98 | 1007.9 |
| 20260506165005 | 58 | 207 | 1.0 | 4.0 | 0.02 | 0.23 | 0.23 | 98 | 1007.8 |
| 20260506164504 | 58 | 194 | 1.0 | 4.0 | 0.02 | 0.23 | 0.23 | 97 | 1007.7 |
| 20260506164004 | 58 | 201 | 1.0 | 4.0 | 0.03 | 0.23 | 0.23 | 97 | 1007.7 |
| 20260506163504 | 58 | 210 | 1.0 | 4.0 | 0.02 | 0.22 | 0.22 | 97 | 1007.8 |
| 20260506163004 | 58 | 210 | 1.0 | 4.0 | 0.03 | 0.22 | 0.22 | 97 | 1007.8 |
| 20260506162504 | 58 | 198 | 1.0 | 4.0 | 0.03 | 0.22 | 0.22 | 97 | 1007.8 |
| 20260506162004 | 58 | 185 | 1.0 | 4.0 | 0.04 | 0.22 | 0.22 | 97 | 1007.8 |
| 20260506161525 | 58 | 193 | 1.0 | 4.0 | 0.05 | 0.22 | 0.22 | 97 | 1007.8 |
| 20260506161004 | 58 | 184 | 1.0 | 7.0 | 0.05 | 0.22 | 0.22 | 97 | 1007.8 |
| 20260506160504 | 58 | 171 | 3.0 | 7.0 | 0.06 | 0.22 | 0.22 | 97 | 1007.9 |
| 20260506160025 | 58 | 170 | 3.0 | 7.0 | 0.05 | 0.21 | 0.21 | 97 | 1007.8 |
| 20260506155504 | 58 | 177 | 3.0 | 13.0 | 0.05 | 0.21 | 0.21 | 97 | 1007.8 |
| 20260506155004 | 58 | 175 | 3.0 | 13.0 | 0.05 | 0.21 | 0.21 | 97 | 1007.9 |
| 20260506154504 | 58 | 173 | 3.0 | 10.0 | 0.06 | 0.21 | 0.21 | 97 | 1007.9 |
| 20260506154004 | 58 | 177 | 4.0 | 13.0 | 0.05 | 0.20 | 0.20 | 97 | 1007.9 |
| 20260506153504 | 58 | 184 | 3.0 | 13.0 | 0.05 | 0.20 | 0.20 | 97 | 1008.1 |
| 20260506153004 | 58 | 187 | 3.0 | 9.0 | 0.05 | 0.19 | 0.19 | 97 | 1008.2 |
| 20260506152504 | 58 | 179 | 3.0 | 7.0 | 0.05 | 0.19 | 0.19 | 97 | 1008.2 |
| 20260506152004 | 58 | 176 | 3.0 | 7.0 | 0.04 | 0.18 | 0.18 | 97 | 1008.2 |
| 20260506151525 | 58 | 177 | 3.0 | 6.0 | 0.03 | 0.17 | 0.17 | 97 | 1008.1 |
| 20260506151025 | 58 | 173 | 3.0 | 9.0 | 0.04 | 0.17 | 0.17 | 97 | 1008.1 |
| 20260506150504 | 58 | 186 | 3.0 | 12.0 | 0.03 | 0.16 | 0.16 | 97 | 1007.9 |
| 20260506150004 | 58 | 195 | 4.0 | 13.0 | 0.04 | 0.16 | 0.16 | 96 | 1007.9 |
| 20260506145504 | 58 | 179 | 4.0 | 13.0 | 0.05 | 0.16 | 0.16 | 96 | 1008.1 |
| 20260506145004 | 58 | 170 | 4.0 | 12.0 | 0.05 | 0.16 | 0.16 | 96 | 1007.9 |
| 20260506144525 | 58 | 169 | 3.0 | 13.0 | 0.05 | 0.15 | 0.15 | 96 | 1008.0 |
| 20260506144004 | 58 | 165 | 4.0 | 13.0 | 0.06 | 0.15 | 0.15 | 96 | 1007.7 |
| 20260506143525 | 58 | 166 | 3.0 | 9.0 | 0.07 | 0.15 | 0.15 | 96 | 1007.9 |
| 20260506143004 | 58 | 171 | 1.0 | 6.0 | 0.07 | 0.14 | 0.14 | 96 | 1008.0 |
| 20260506142525 | 58 | 167 | 3.0 | 7.0 | 0.07 | 0.14 | 0.14 | 96 | 1008.2 |
| 20260506142004 | 58 | 166 | 3.0 | 12.0 | 0.08 | 0.14 | 0.14 | 96 | 1008.0 |
| 20260506141504 | 58 | 167 | 3.0 | 12.0 | 0.09 | 0.14 | 0.14 | 96 | 1007.9 |
| 20260506141004 | 58 | 166 | 3.0 | 9.0 | 0.09 | 0.13 | 0.13 | 96 | 1007.9 |
| 20260506140525 | 58 | 166 | 3.0 | 10.0 | 0.09 | 0.13 | 0.13 | 96 | 1008.0 |
| 20260506140004 | 57 | 165 | 3.0 | 10.0 | 0.09 | 0.12 | 0.12 | 96 | 1008.1 |
| 20260506135504 | 57 | 167 | 3.0 | 10.0 | 0.09 | 0.11 | 0.11 | 96 | 1008.2 |
| 20260506135004 | 57 | 171 | 3.0 | 13.0 | 0.10 | 0.11 | 0.11 | 96 | 1008.3 |
| 20260506134504 | 57 | 167 | 3.0 | 13.0 | 0.10 | 0.10 | 0.10 | 95 | 1008.3 |
| 20260506134004 | 57 | 163 | 1.0 | 10.0 | 0.09 | 0.09 | 0.09 | 95 | 1008.4 |
| 20260506133504 | 57 | 164 | 0.0 | 7.0 | 0.08 | 0.08 | 0.08 | 95 | 1008.5 |
| 20260506133004 | 57 | 168 | 1.0 | 4.0 | 0.07 | 0.07 | 0.07 | 94 | 1008.6 |
| 20260506132525 | 56 | 171 | 1.0 | 4.0 | 0.07 | 0.07 | 0.07 | 93 | 1008.7 |
| 20260506132004 | 56 | 175 | 0.0 | 1.0 | 0.06 | 0.06 | 0.06 | 93 | 1008.6 |
| 20260506131504 | 56 | 175 | 0.0 | 3.0 | 0.05 | 0.05 | 0.05 | 92 | 1008.7 |
| 20260506131004 | 57 | 175 | 0.0 | 3.0 | 0.04 | 0.04 | 0.04 | 91 | 1008.8 |
| 20260506130525 | 57 | 0 | 0.0 | 0.0 | 0.04 | 0.04 | 0.04 | 90 | 1009.0 |
| 20260506130005 | 57 | 175 | 0.0 | 3.0 | 0.03 | 0.03 | 0.03 | 90 | 1009.0 |
| 20260506125504 | 58 | 175 | 1.0 | 3.0 | 0.02 | 0.02 | 0.02 | 88 | 1009.0 |
| 20260506125025 | 58 | 177 | 1.0 | 4.0 | 0.01 | 0.01 | 0.01 | 87 | 1008.9 |
| 20260506124504 | 59 | 184 | 1.0 | 4.0 | 0.00 | 0.00 | 0.00 | 85 | 1008.8 |
| 20260506124004 | 59 | 184 | 1.0 | 4.0 | 0.00 | 0.00 | 0.00 | 82 | 1008.7 |
| 20260506123504 | 60 | 163 | 0.0 | 1.0 | 0.00 | 0.00 | 0.00 | 81 | 1008.4 |
| 20260506123004 | 60 | 163 | 0.0 | 1.0 | 0.00 | 0.00 | 0.00 | 82 | 1008.3 |
| 20260506122504 | 60 | 163 | 0.0 | 1.0 | 0.00 | 0.00 | 0.00 | 79 | 1008.2 |
| 20260506122024 | 60 | 163 | 0.0 | 3.0 | 0.00 | 0.00 | 0.00 | 75 | 1008.1 |
| 20260506121504 | 60 | 163 | 0.0 | 3.0 | 0.00 | 0.00 | 0.00 | 76 | 1008.1 |
| 20260506121004 | 61 | 0 | 0.0 | 0.0 | 0.00 | 0.00 | 0.00 | 75 | 1008.2 |
| 20260506120525 | 61 | 0 | 0.0 | 0.0 | 0.00 | 0.00 | 0.00 | 75 | 1008.4 |
| 20260506120004 | 61 | 0 | 0.0 | 0.0 | 0.00 | 0.00 | 0.00 | 72 | 1008.5 |
| 20260506115525 | 61 | 0 | 0.0 | 0.0 | 0.00 | 0.00 | 0.00 | 71 | 1008.4 |
| 20260506115004 | 61 | 0 | 0.0 | 0.0 | 0.00 | 0.00 | 0.00 | 70 | 1008.5 |
| 20260506114504 | 61 | 0 | 0.0 | 0.0 | 0.00 | 0.00 | 0.00 | 71 | 1008.4 |
| 20260506114004 | 61 | 0 | 0.0 | 0.0 | 0.00 | 0.00 | 0.00 | 70 | 1008.3 |
| 20260506113525 | 61 | 0 | 0.0 | 0.0 | 0.00 | 0.00 | 0.00 | 71 | 1008.4 |
| 20260506113004 | 61 | 0 | 0.0 | 0.0 | 0.00 | 0.00 | 0.00 | 71 | 1008.4 |
| 20260506112503 | 61 | 0 | 0.0 | 0.0 | 0.00 | 0.00 | 0.00 | 70 | 1008.3 |
| 20260506112004 | 61 | 0 | 0.0 | 0.0 | 0.00 | 0.00 | 0.00 | 70 | 1008.3 |
| 20260506111503 | 61 | 0 | 0.0 | 0.0 | 0.00 | 0.00 | 0.00 | 70 | 1008.3 |
| 20260506111004 | 61 | 0 | 0.0 | 0.0 | 0.00 | 0.00 | 0.00 | 69 | 1008.2 |
| 20260506110503 | 62 | 0 | 0.0 | 0.0 | 0.00 | 0.00 | 0.00 | 70 | 1008.3 |
| 20260506110025 | 62 | 0 | 0.0 | 0.0 | 0.00 | 0.00 | 0.00 | 69 | 1008.3 |